Date String (YYYY-MM-DD hh:mm:ss) UTC,Instrument flags,Ambient pressure (hPa),Sample flow (lpm),Bypass flow (lpm),Sample temperature (°C),Ambient temperature (°C),ASC tube jacket temperature (°C),LED temperature (°C),Box temperature (°C),Sample RH (%),Span deviation,Mass concentration (μg/m³),Mass concentration (μg/m³),Mass concentration (μg/m³)
DateTimeUTC,F1_M11,P_M11,Q1_M11,Q2_M11,T1_M11,T2_M11,T3_M11,T4_M11,T5_M11,U1_M11,ZSPAN_M11,X2_M11,X0_M11,X1_M11
2023-02-21 22:00:00,,0801.9,5.00,0.00,24.9,23.2,00.0,33.8,26.7,16.5,0000.0,0006.39,0015.52,0005.46
2023-02-21 22:01:00,,0801.9,5.01,0.00,24.9,23.1,00.0,33.8,26.7,16.7,0000.0,0006.39,0014.79,0005.45
2023-02-21 22:02:00,,0801.9,5.01,0.00,24.8,23.1,00.0,33.8,26.6,16.6,0000.0,0006.40,0015.19,0005.44
2023-02-21 22:03:00,,0801.8,5.00,0.00,24.8,23.2,00.0,33.8,26.6,16.5,0000.0,0006.35,0015.18,0005.43
2023-02-21 22:04:00,,0801.7,5.01,0.00,24.8,23.2,00.0,33.8,26.7,16.4,0000.0,0006.31,0014.82,0005.41
2023-02-21 22:05:00,,0801.7,5.00,0.00,24.8,23.2,00.0,33.8,26.7,15.5,0000.0,0006.25,0014.53,0005.37
2023-02-21 22:06:00,,0801.8,5.00,0.00,24.8,23.2,00.0,33.8,26.6,15.5,0000.0,0006.16,0013.75,0005.32
2023-02-21 22:07:00,,0801.9,5.00,0.00,24.8,23.2,00.0,33.8,26.6,15.3,0000.0,0006.14,0013.47,0005.30
2023-02-21 22:08:00,,0801.9,4.99,0.00,24.8,23.2,00.0,33.8,26.6,15.0,0000.0,0006.09,0013.13,0005.27
2023-02-21 22:09:00,,0801.9,5.00,0.00,24.8,23.1,00.0,33.7,26.6,15.1,0000.0,0006.06,0012.98,0005.26
2023-02-21 22:10:00,,0801.9,4.99,0.00,24.8,23.1,00.0,33.7,26.6,15.0,0000.0,0005.99,0012.26,0005.23
2023-02-21 22:11:00,,0801.9,5.00,0.00,24.8,23.1,00.0,33.7,26.6,14.8,0000.0,0005.94,0012.33,0005.20
2023-02-21 22:12:00,,0802.1,5.00,0.00,24.8,23.1,00.0,33.7,26.6,14.4,0000.0,0005.85,0012.98,0005.15
2023-02-21 22:13:00,,0802.3,4.99,0.00,24.7,23.0,00.0,33.7,26.6,14.5,0000.0,0005.77,0013.01,0005.11
2023-02-21 22:14:00,,0802.2,5.00,0.00,24.7,23.0,00.0,33.7,26.6,14.5,0000.0,0005.74,0013.01,0005.07
2023-02-21 22:15:00,,0802.2,5.00,0.00,24.7,23.0,00.0,33.7,26.5,14.4,0000.0,0005.67,0013.21,0005.01
2023-02-21 22:16:00,,0802.2,4.99,0.00,24.7,22.9,00.0,33.7,26.5,14.7,0000.0,0005.64,0013.12,0005.00
2023-02-21 22:17:00,,0802.2,5.00,0.00,24.7,22.9,00.0,33.7,26.5,14.4,0000.0,0005.65,0013.28,0004.99
2023-02-21 22:18:00,,0802.2,4.99,0.00,24.7,22.9,00.0,33.7,26.5,14.0,0000.0,0005.59,0013.55,0004.95
2023-02-21 22:19:00,,0802.2,5.00,0.00,24.7,22.8,00.0,33.7,26.4,13.6,0000.0,0005.55,0013.22,0004.91
2023-02-21 22:20:00,,0802.2,5.00,0.00,24.6,22.8,00.0,33.7,26.4,13.5,0000.0,0005.49,0012.97,0004.87
2023-02-21 22:21:00,,0802.2,5.00,0.00,24.6,22.7,00.0,33.7,26.4,13.5,0000.0,0005.46,0012.73,0004.82
2023-02-21 22:22:00,,0802.2,4.99,0.00,24.6,22.7,00.0,33.6,26.4,13.7,0000.0,0005.42,0012.03,0004.78
2023-02-21 22:23:00,,0802.3,4.99,0.00,24.6,22.6,00.0,33.6,26.3,13.9,0000.0,0005.42,0011.38,0004.76
2023-02-21 22:24:00,,0802.3,4.99,0.00,24.6,22.7,00.0,33.6,26.3,14.0,0000.0,0005.39,0010.69,0004.74
2023-02-21 22:25:00,,0802.4,5.01,0.00,24.6,22.7,00.0,33.6,26.3,14.1,0000.0,0005.33,0010.14,0004.71
2023-02-21 22:26:00,,0802.4,5.01,0.00,24.6,22.7,00.0,33.6,26.3,14.2,0000.0,0005.29,0009.91,0004.68
2023-02-21 22:27:00,,0802.6,4.99,0.00,24.6,22.8,00.0,33.6,26.4,14.5,0000.0,0005.27,0009.93,0004.66
2023-02-21 22:28:00,,0802.6,5.01,0.00,24.6,22.8,00.0,33.5,26.4,14.5,0000.0,0005.21,0010.19,0004.64
2023-02-21 22:29:00,,0802.7,5.00,0.00,24.5,22.9,00.0,33.5,26.4,14.5,0000.0,0005.22,0010.27,0004.61
2023-02-21 22:30:00,,0802.7,5.01,0.00,24.5,22.9,00.0,33.5,26.4,14.6,0000.0,0005.21,0010.22,0004.61
2023-02-21 22:31:00,,0802.7,5.00,0.00,24.6,22.9,00.0,33.5,26.4,14.9,0000.0,0005.24,0010.82,0004.63
2023-02-21 22:32:00,,0802.7,5.00,0.00,24.5,22.9,00.0,33.5,26.3,15.4,0000.0,0005.26,0010.98,0004.65
2023-02-21 22:33:00,,0802.8,4.99,0.00,24.5,22.8,00.0,33.5,26.3,15.1,0000.0,0005.26,0011.21,0004.65
2023-02-21 22:34:00,,0802.8,5.00,0.00,24.5,22.7,00.0,33.5,26.3,14.8,0000.0,0005.20,0011.11,0004.62
2023-02-21 22:35:00,,0802.8,5.00,0.00,24.5,22.6,00.0,33.5,26.2,14.8,0000.0,0005.14,0011.07,0004.56
2023-02-21 22:36:00,,0802.8,5.00,0.00,24.5,22.5,00.0,33.5,26.2,14.8,0000.0,0005.04,0011.03,0004.49
2023-02-21 22:37:00,,0802.9,4.99,0.00,24.4,22.4,00.0,33.5,26.2,14.7,0000.0,0004.94,0010.99,0004.40
2023-02-21 22:38:00,,0803.0,4.99,0.00,24.4,22.4,00.0,33.4,26.2,14.6,0000.0,0004.83,0011.47,0004.30
2023-02-21 22:39:00,,0803.0,5.00,0.00,24.4,22.4,00.0,33.4,26.1,13.9,0000.0,0004.68,0011.19,0004.17
2023-02-21 22:40:00,,0803.0,5.00,0.00,24.4,22.4,00.0,33.4,26.1,13.7,0000.0,0004.54,0010.56,0004.06
2023-02-21 22:41:00,,0802.9,5.00,0.00,24.4,22.4,00.0,33.4,26.1,13.8,0000.0,0004.37,0010.74,0003.94
2023-02-21 22:42:00,,0802.9,5.01,0.00,24.4,22.5,00.0,33.4,26.1,13.4,0000.0,0004.21,0010.26,0003.80
2023-02-21 22:43:00,,0802.8,5.00,0.00,24.4,22.6,00.0,33.4,26.2,13.3,0000.0,0004.01,0009.92,0003.63
2023-02-21 22:44:00,,0802.9,4.99,0.00,24.4,22.7,00.0,33.4,26.2,13.4,0000.0,0003.84,0010.13,0003.46
2023-02-21 22:45:00,,0802.9,5.00,0.00,24.4,22.7,00.0,33.3,26.2,13.3,0000.0,0003.70,0009.79,0003.32
2023-02-21 22:46:00,,0803.0,5.00,0.00,24.4,22.8,00.0,33.3,26.2,13.5,0000.0,0003.57,0009.63,0003.21
2023-02-21 22:47:00,,0803.0,5.00,0.00,24.4,22.8,00.0,33.3,26.2,13.3,0000.0,0003.49,0009.84,0003.11
2023-02-21 22:48:00,,0803.0,5.00,0.00,24.4,22.9,00.0,33.3,26.2,13.3,0000.0,0003.41,0009.55,0002.97
2023-02-21 22:49:00,,0802.9,4.98,0.00,24.4,22.9,00.0,33.3,26.2,13.4,0000.0,0003.30,0008.79,0002.81
2023-02-21 22:50:00,,0802.9,4.97,0.00,24.4,22.9,00.0,33.3,26.3,13.3,0000.0,0003.27,0008.33,0002.70
2023-02-21 22:51:00,,0802.9,5.02,0.00,24.4,22.8,00.0,33.3,26.3,13.4,0000.0,0003.26,0008.09,0002.64
2023-02-21 22:52:00,,0802.8,5.00,0.00,24.4,22.9,00.0,33.3,26.3,13.5,0000.0,0003.25,0007.94,0002.57
2023-02-21 22:53:00,,0802.9,5.00,0.00,24.4,22.9,00.0,33.3,26.3,13.5,0000.0,0003.23,0008.14,0002.52
2023-02-21 22:54:00,,0802.8,5.00,0.00,24.4,22.9,00.0,33.3,26.3,13.6,0000.0,0003.22,0008.59,0002.49
2023-02-21 22:55:00,,0802.9,5.01,0.00,24.4,22.9,00.0,33.3,26.3,13.6,0000.0,0003.21,0007.98,0002.47
2023-02-21 22:56:00,,0802.9,4.99,0.00,24.4,23.0,00.0,33.3,26.3,13.6,0000.0,0003.20,0007.90,0002.45
2023-02-21 22:57:00,,0803.0,5.00,0.00,24.5,23.0,00.0,33.3,26.3,13.5,0000.0,0003.21,0007.97,0002.44
2023-02-21 22:58:00,,0803.0,4.99,0.00,24.5,23.0,00.0,33.3,26.3,13.4,0000.0,0003.19,0007.66,0002.43
2023-02-21 22:59:00,,0803.0,5.01,0.00,24.5,23.0,00.0,33.3,26.3,13.2,0000.0,0003.18,0007.52,0002.43
